Other Public Products
Issued by NWS Grand Forks, ND

Home | Current Version | Previous Version | Text Only | Print | Product List | Glossary Off
Versions: 1 2 3 4 5 6 7 8 9 10 11 12 13 14 15 16 17 18 19 20 21 22 23 24 25 26 27 28 29 30 31 32 33 34 35 36 37 38 39 40 41 42 43 44 45 46 47 48 49 50

000
FPUS83 KFGF 040731
OPUFGF
PRAIRIE TO PINES WEATHER ROUNDUP
NATIONAL WEATHER SERVICE EASTERN NORTH DAKOTA/GRAND FORKS ND
100 AM CST WED MAR 04 2015

 **SATELLITE DATA USED TO AUGMENT SKY COVER AT AUTOMATED STATIONS**
 *****  WEATHER ACROSS EASTERN NORTH DAKOTA  *****

CITY           SKY/WX    TMP DP  RH WIND       PRES   REMARKS
GRAND FORKS    CLEAR     -2 -10  69 W12       30.04S WCI -20
GRAND FORKS AF CLEAR     -2 -12  62 NW10      30.03S WCI -19
GRAND CITY NWS   N/A     -4 N/A N/A W7          N/A  WCI -18
BUXTON         NOT AVBL
DEVILS LAKE    CLEAR     -6 -15  65 W13       30.00R WCI -25
FARGO          CLEAR      1  -9  62 W13       30.07S WCI -17
WAHPETON ARPT  SUNNY      0  -8  71 W10       30.09R WCI -17
$$

 *****  WEATHER ACROSS CENTRAL AND WESTERN NORTH DAKOTA  *****

CITY           SKY/WX    TMP DP  RH WIND       PRES   REMARKS
JAMESTOWN      CLEAR     -2 -12  62 W8        30.02S WCI -17
BISMARCK       MOCLDY     3  -2  79 W6        30.07R WCI  -8
MINOT          PTCLDY    -4 -11  72 W12       30.04R WCI -22
MINOT AFB      CLEAR     -5 -11  73 NW13      30.04R WCI -24
GARRISON         N/A      1  -4  79 NW14      30.02R WCI -17
WILLISTON      CLEAR     -4 -13  65 NW14      30.13R WCI -24
DICKINSON      PTCLDY     3  -7  63 NW14      30.01R WCI -15
HETTINGER      LGT SNOW   8   1  73 NW20G31   30.03R WCI -11
$$

 *****  OTHER OBSERVATIONS NORTHEAST NORTH DAKOTA  *****

CITY           SKY/WX    TMP DP  RH WIND       PRES   REMARKS
WALHALLA         N/A     -4 -13  65 NW13      30.03R WCI -23
LANGDON        NOT AVBL
CAVALIER       FAIR      -2 -13  60 NW10      30.02R WCI -19
GRAFTON        NOT AVBL
CANDO          FAIR      -9 -15  77 W10       30.01R WCI -28
FORT TOTTEN      N/A     -5 -12  72 NW5       29.95  WCI -16
ROLLA          FAIR      -8 -15  71 NW16      29.97R WCI -30
RUGBY          FAIR      -9 -15  77 NW10      30.02R WCI -28
 ***** THE ABOVE OBSERVATIONS ARE NON NWS ARE NOT QUALITY
        CONTROLLED AND MAY MIS-REPORT RAIN FOR SNOW...
$$

 *****  OTHER OBSERVATIONS SOUTHEAST NORTH DAKOTA *****

CITY           SKY/WX    TMP DP  RH WIND       PRES   REMARKS
COOPERSTOWN    NOT AVBL
VALLEY CITY    FAIR      -4  -9  77 W8        30.03R WCI -19
OAKES            N/A      0  -9  65 W6        30.07S WCI -12
GWINNER        SUNNY      1  -8  66 W9        30.08S WCI -14
BUFFALO        NOT AVBL
WYNDMERE       NOT AVBL
 ***** THE ABOVE OBSERVATIONS ARE NON NWS ARE NOT QUALITY
       CONTROLLED AND MAY MIS-REPORT RAIN FOR SNOW...
$$

  *****  WEATHER ACROSS NORTHERN MINNESOTA  *****

CITY           SKY/WX    TMP DP  RH WIND       PRES   REMARKS
FLAG ISLAND    CLEAR     -9 -17  70 W5        29.92R WCI -21
WARROAD        CLEAR     -9 -15  77 W7        29.94R WCI -24
ROSEAU         CLEAR     -6 -11  77 W7        29.95S WCI -20
HALLOCK        CLEAR     -8 -15  71 W7        30.00S WCI -22
THF RVR FALLS  CLEAR     -4  -9  77 W10       29.98R WCI -21
HALSTAD          N/A     -2  -9  71 W9          N/A  WCI -18
FOSSTON        LGT SNOW  -6 -11  77 W6        29.98R WCI -18
BAUDETTE       CLEAR     -7 -13  75 W7        29.90R WCI -21
WASKISH        FAIR      -8 -11  84 W6        29.92S WCI -21
CROOKSTON      CLEAR     -2  -9  71 NW14      30.04R WCI -21
$$
  *****  WEATHER ACROSS CENTRAL AND WEST MINNESOTA  *****

CITY           SKY/WX    TMP DP  RH WIND       PRES   REMARKS
BEMIDJI        CLEAR     -6 -11  77 W10       29.94R WCI -23
PARK RAPIDS    FAIR      -4 -10  75 W10       29.95R WCI -21
WADENA         CLEAR     -6 -11  77 W6        29.99R WCI -18
DETROIT LAKES  CLEAR      0  -6  78 W13       30.00S WCI -18
MOORHEAD       CLEAR      1  -6  71 NW13      30.07S WCI -16
FERGUS FALLS   CLEAR     -4 -11  71 W8        30.10R WCI -19
ELBOW LAKE     FAIR      -5  -9  81 W7        30.05S WCI -19
MORRIS MN      CLEAR     -4  -9  77 W9        30.07R WCI -20
STAPLES        CLEAR     -8 -13  77 W7        29.99R WCI -22
WHEATON        CLEAR     -2  -9  71 W10       30.12R WCI -19
$$
  *****  WEATHER ELSEWHERE ACROSS MINNESOTA  *****

CITY           SKY/WX    TMP DP  RH WIND       PRES   REMARKS
DULUTH         PTCLDY    -1 -10  65 NW13G23   29.85R WCI -19
INTRNTL FALLS  PTCLDY    -6 -12  75 W9        29.88R WCI -23
ELY            LGT SNOW  -2  -8  78 W8        29.82R WCI -17
CLOQUET        CLEAR     -2 -11  65 W9        29.90R WCI -18
BRAINERD       CLEAR     -2  -8  76 W7        29.98R WCI -15
HIBBING        PTCLDY    -4 -12  68 W9        29.88R WCI -20
ALEXANDRIA     CLEAR     -2  -9  72 NW13      30.01R WCI -20
SAINT CLOUD    CLEAR      1  -8  66 W12       30.02R WCI -16
MINNEAPOLIS    PTCLDY     5  -5  63 W13       30.05R WCI -12
$$

  *****  WEATHER ACROSS SOUTH DAKOTA  *****

CITY           SKY/WX    TMP DP  RH WIND       PRES   REMARKS
SIOUX FALLS    PTCLDY     5  -2  72 W3        30.13R
BROOKINGS      NOT AVBL
WATERTOWN      CLEAR      0  -7  72 W9        30.07R WCI -15
HURON          CLEAR     -4  -8  83 CALM      30.15R
SISSETON       NOT AVBL
ABERDEEN       CLEAR     -8 -13  78 SW7       30.12S WCI -23
MITCHELL       CLEAR      5   0  79 W5        30.17R WCI  -4
PIERRE         CLEAR      4  -3  73 SW8       30.12R WCI  -9
MOBRIDGE       CLEAR      2  -4  76 SE3       30.04S
RAPID CITY     CLEAR      0  -7  72 NW6       30.07R WCI -12
$$

  *****  SOME WEATHER IN NEARBY STATES *****

CITY           SKY/WX    TMP DP  RH WIND       PRES   REMARKS
GLASGOW MT     CLEAR      2  -8  63 NW12      30.16R WCI -15
GREAT FALLS MT CLOUDY    11   0  61 NW6       30.17R WCI   1
CHEYENNE WY    LGT SNOW   7   2  80 N8        29.91R WCI  -6
SCOTTSBLUFF NE MOCLDY    11   6  81 W6        30.08R WCI   1
OMAHA NE       CLOUDY    18   5  57 N16G26    30.17R WCI   3
DES MOINES IA  MOCLDY    15   5  64 NW17G24   30.12R WCI  -1
DAVENPORT IA   CLEAR     15   7  70 NW15      29.99R WCI   0
CHICAGO IL     CLOUDY    30  23  75 W12       29.87R WCI  20
EAU CLAIRE WI  CLEAR      7  -4  60 W10       29.97R WCI  -8
LA CROSSE WI   CLEAR     12   2  64 NW15      29.99R WCI  -4
$$

  *****  SOME NATIONAL WEATHER *****

CITY           SKY/WX    TMP DP  RH WIND       PRES   REMARKS
LA GUARDIA NY  CLOUDY    36  32  87 SW10G17   29.78F
RALEIGH NC     FOG       39  37  92 SW9       30.04F VSB 1/2
ATLANTA GA     FOG       50  49  96 SE3       30.07F VSB 1/16
NEW ORLEANS LA MOCLDY    69  66  90 SE7       29.99F
OKLAHOMA CITY  MOCLDY    43  34  70 N16G22    29.89S
ALBUQUERQUE NM PTCLDY    41  27  57 N8        29.88F
SALT LAKE CITY PTCLDY    30  25  81 SE7       30.01S WCI  23
LOS ANGELES CA CLEAR     58  43  57 NW3       29.95S
BOISE ID       CLEAR     29  15  56 W9        30.11R WCI  20
SEATTLE WA     CLEAR     37  21  52 SE6       30.25S
$$

*** WEATHER ACROSS MANITOBA...SASKATCHEWAN AND ONTARIO ***
                ***ONTARIO***

CITY           SKY/WX    TMP DP  RH WIND       PRES   REMARKS
GERALDTON      FLURRIES  -2  -9  71 W10G22    29.55R WCI -19
THUNDER BAY    PTCLDY     1  -9  60 NW15G28   29.77R WCI -18
SIOUX LOOKOUT  CLEAR    -11 -22  58 NW12      29.76R WCI -31
TORONTO        CLOUDY    32  25  74 W20G25    29.70R WCI  20
BIG TROUT LK   FLURRIES -11 -17  77 N10G22    29.66R WCI -30
PICKLE LAKE    NOT AVBL
DRYDEN         PTCLDY   -11 -20  64 W12G20    29.79R WCI -31
KENORA         FLURRIES -11 -20  64 W6        29.86R WCI -25
$$
                *** MANITOBA***

CITY           SKY/WX    TMP DP  RH WIND       PRES   REMARKS
BRANDON        CLEAR    -17 -22  76 W12       30.01R WCI -38
DAUPHIN        FLURRIES  -9 -18  64 W9        30.07R WCI -27
ISLAND LAKE    FLURRIES -11 -18  70 N12G18    29.87R WCI -31
PILOT MOUND    NOT AVBL
THE PAS        CLEAR    -11 -17  77 NW10      30.11R WCI -30
THOMPSON       CLEAR    -15 -20  76 N7        30.06R WCI -31
WINNIPEG       PTCLDY   -13 -22  64 NW12      30.03R WCI -33
LYNN LAKE      CLEAR    -18 -24  76 NW7       30.11R WCI -35
CHURCHILL      CRYSTALS -20 -26  76 NW17      30.05S WCI -47
GILLAM         CLEAR    -18 -24  76 N12       30.00R WCI -40
$$
                ***SASKATCHEWAN***

CITY           SKY/WX    TMP DP  RH WIND       PRES   REMARKS
ESTEVAN        CLEAR    -13 -18  77 NW12      30.09R WCI -33
KINDERSLEY     PTCLDY   -11 -18  70 N7        30.20S WCI -26
LLOYDMINSTER   CLEAR     -9 -20  59 NW3       30.21R
PRINCE ALBERT  CLEAR    -17 -26  63 W5        30.24R WCI -29
REGINA         CLEAR    -17 -22  76 NW14      30.14R WCI -40
YORKTON        MOCLDY   -13 -22  64 NW16      30.07R WCI -37


USA.gov is the U.S. government's official web portal to all federal, state and local government web resources and services.